This demonstration page uses our WeatherBlox Daily Observations layout. Learn more.

Left ArrowRight Arrow

Hourly Observations for June 22, 2019

Temp ( °F °C ) Dew Point ( °F °C ) Humidity (%) Winds ( mph kmh ) Pressure ( in mb ) Visibility ( mi km ) Precip ( " mm )
12:53 am 00:53 Cloudy with Light Rain 50 10 50 10 100 100 SW 12 19 29.82 1010 10 16 0.04 1.02
1:48 am 01:48 Cloudy with Rain 52 11 52 11 100 100 W 9 15 29.79 1009 4 6 0.08 2.03
1:53 am 01:53 Cloudy with Light Rain 52 11.1 51 10.6 97 97 W 10 17 29.80 1009 6 10 0.08 2.03
2:00 am 02:00 Cloudy with Light Rain 52 11.1 52 11.1 100 100 W 8 13 29.79 1009 6 10 0.01 0.25
2:13 am 02:13 Cloudy with Light Rain 53 11.7 52 11.1 96 96 WNW 13 20 29.78 1009 6 10 0.03 0.76
2:43 am 02:43 Cloudy with Light Rain 52 11.1 51 10.6 97 97 WNW 13 20 29.79 1009 10 16 0.07 1.78
2:53 am 02:53 Cloudy with Light Rain 52 11.1 51 10.6 97 97 WNW 15 24 29.81 1010 10 16 0.07 1.78
2:56 am 02:56 Cloudy with Light Rain 52 11.1 51 10.6 97 97 WNW 16 26 29.79 1009 10 16 0.00 0.03
3:53 am 03:53 Cloudy with Light Rain 52 11.1 51 10.6 97 97 WNW 16 26 29.81 1010 9 14 0.02 0.51
4:53 am 04:53 Cloudy 52 11.1 50 10 93 93 WNW 16 26 29.83 1010 10 16 0.00 0.03
5:14 am 05:14 Cloudy with Light Rain 52 11.1 50 10 93 93 WNW 20 31 29.82 1010 8 13 0.01 0.25
5:25 am 05:25 Cloudy with Light Rain 51 10.6 50 10 96 96 WNW 17 28 29.82 1010 8 13 0.01 0.25
5:53 am 05:53 Cloudy with Light Rain 52 11.1 50 10 93 93 WNW 18 30 29.85 1011 5 8 0.02 0.51
6:05 am 06:05 Cloudy with Light Rain 52 11.1 50 10 93 93 WNW 17 28 29.83 1010 4 6 0.02 0.51
6:53 am 06:53 Cloudy with Light Rain 52 11.1 50 10 93 93 WNW 20 31 29.86 1011 4 6 0.05 1.27
7:41 am 07:41 Cloudy with Light Rain 52 11.1 50 10 93 93 WNW 20 31 29.85 1011 5 8 0.05 1.27
7:53 am 07:53 Cloudy with Light Rain 52 11.1 49 9.4 89 89 WNW 20 31 29.88 1012 5 8 0.06 1.52
8:53 am 08:53 Cloudy 52 11.1 49 9.4 89 89 NW 22 35 29.89 1012 9 14 0.01 0.25
9:53 am 09:53 Cloudy 53 11.7 48 8.9 83 83 WNW 24 39 29.90 1012 10 16 0.00 0.00
10:53 am 10:53 Cloudy 54 12.2 48 8.9 80 80 WNW 17 28 29.90 1013 10 16 0.00 0.00
11:53 am 11:53 Cloudy 58 14.4 49 9.4 72 72 WNW 17 28 29.90 1012 10 16 0.00 0.00
12:17 pm 12:17 Cloudy 58 14.4 48 8.9 70 70 WNW 22 35 29.85 1011 10 16 0.00 0.00
12:53 pm 12:53 Cloudy 61 16.1 48 8.9 63 63 WNW 25 41 29.88 1012 10 16 0.00 0.00
1:53 pm 13:53 Mostly Cloudy 64 17.8 47 8.3 54 54 WNW 22 35 29.88 1012 10 16 0.00 0.00
2:53 pm 14:53 Mostly Cloudy 67 19.4 46 7.8 47 47 WNW 24 39 29.85 1011 10 16 0.00 0.00
3:53 pm 15:53 Mostly Cloudy 70 21.1 44 6.7 39 39 WNW 25 41 29.85 1011 10 16 0.00 0.00
4:53 pm 16:53 Partly Cloudy 70 21.1 43 6.1 38 38 WNW 21 33 29.84 1011 10 16 0.00 0.00
5:53 pm 17:53 Mostly Sunny 71 21.7 42 5.6 35 35 WNW 20 31 29.84 1011 10 16 0.00 0.00
6:09 pm 18:09 Partly Cloudy 71 21.7 42 5.6 35 35 WNW 22 35 29.75 1007 10 16 0.00 0.00
6:53 pm 18:53 Partly Cloudy 68 20 45 7.2 44 44 W 12 19 29.84 1011 10 16 0.00 0.00
7:53 pm 19:53 Sunny 68 20 44 6.7 42 42 WNW 14 22 29.83 1010 10 16 0.00 0.00
8:53 pm 20:53 Sunny 63 17.2 47 8.3 56 56 W 10 17 29.85 1011 10 16 0.00 0.00
9:53 pm 21:53 Clear 54 12.2 48 8.9 80 80 SW 9 15 29.86 1011 10 16 0.00 0.00
10:53 pm 22:53 Mostly Clear 51 10.6 47 8.3 86 86 WSW 8 13 29.88 1012 10 16 0.00 0.00
11:53 pm 23:53 Clear 50 10 46 7.8 86 86 WSW 6 9 29.88 1012 10 16 0.00 0.00

Powered by AerisWeather